Tracking 19476 objects as of 17-Jan-2019
HD Live streaming from Space Station
objects crossing your sky now

TELSTAR 303

Track TELSTAR 303 now!
TELSTAR 303 is classified as:


NORAD ID: 15826
Int'l Code: 1985-048D
Perigee: 35,884.2 km
Apogee: 35,925.4 km
Inclination: 15.2 °
Period: 1,441.8 minutes
Semi major axis: 42275 km
RCS: 5.0403 m2 (large)
Launch date: June 17, 1985
Source: United States (US)
Launch site: AIR FORCE EASTERN TEST RANGE (AFETR)
aabbcc
Your satellite tracking list
Your tracking list is empty




NASA's NSSDC Master Catalog

Two Line Element Set (TLE):
1 15826U 85048D   19015.85827584 -.00000284 +00000-0 +00000-0 0  9995
2 15826 015.2036 008.8744 0004875 287.9140 072.0631 00.99876950019447
Source of the keplerian elements: AFSPC